Content
SEND FEEDBACK

Daily
Averages
Monthly
Summary
Canada

BANFF, ALBERTA


Home > North America > Canada > Alberta
Elevation: 4583 feet     Latitude: 51 11N     Longitude: 115 34W

WEATHER
 
SELECT A DAY
Number of Records: 132,364;   Date Range: 1/1/95 - 8/31/14
 
SHARE

PRINT THIS DATA

[ ← Previous Day ]
WEATHER ALMANAC - DECEMBER 25, 2013
[ Next Day → ]
[ °C ]   °F
Weather ElementAverageHighLow
Temperature25 °F28.9 °F (1:00 pm)20.3 °F (7:00 am)
Dewpoint15.8 °F21.6 °F (6:00 pm)11.3 °F (5:00 am)
Humidity68.7 %82 % (5:00 pm)55 % (1:00 pm)
Barometer30.30 in30.40 in (4:00 am)30.20 in (1:00 pm)
Wind Speed10.5 mph15 mph (9:00 am)
Wind Gust26.5 mph (12:00 pm)
Weather ElementAverage
Wind DirectionWSW (239.1 °)

Weather ElementTotal
Precipitation---
Heating Degree Days40.4 (Base 65)
Averaged from 23 records on December 25, 2013
WEATHER CONDITIONS BREAKOUT
WIND DIRECTION BREAKOUT
WEATHER BY HOUR - DECEMBER 25, 2013
[ °C ]   °F
Local TimeTemperatureDewpointHumidityBarometerVisibilityWind DirectionWind SpeedGust SpeedPrecipitationEventsConditions
1:00 AM25.5 °F11.8 °F56 %30.35 inWSW (250°)9.2 mph
2:00 AM24.1 °F12.2 °F61 %30.36 inWSW (250°)9.2 mph18.4 mph
3:00 AM23.9 °F12.0 °F61 %30.38 inWSW (250°)10.4 mph18.4 mph
4:00 AM23.4 °F11.7 °F61 %30.40 inWSW (240°)9.2 mph
5:00 AM21.4 °F11.3 °F65 %30.40 inSW (230°)9.2 mph
6:00 AM20.7 °F12.0 °F69 %30.39 inSW (230°)8.1 mph
7:00 AM20.3 °F11.8 °F70 %30.38 inSW (230°)6.9 mph
8:00 AM22.6 °F12.2 °F64 %30.33 inSW (230°)12.7 mph19.6 mph
9:00 AM22.8 °F12.9 °F66 %30.33 inSW (230°)15.0 mph21.9 mph
10:00 AM23.5 °F13.3 °F65 %30.32 inSW (220°)12.7 mph19.6 mph
11:00 AM24.3 °F14.4 °F66 %30.27 inSW (230°)12.7 mph21.9 mph
12:00 PM25.3 °F14.5 °F64 %30.24 inWSW (240°)12.7 mph26.5 mph
1:00 PM28.9 °F14.5 °F55 %30.20 inWSW (250°)10.4 mph23.0 mph
2:00 PM28.6 °F18.1 °F65 %30.21 inSW (230°)13.8 mph21.9 mph
3:00 PM28.2 °F19.2 °F69 %30.21 inSW (230°)13.8 mph25.3 mph
4:00 PM27.1 °F20.1 °F75 %30.23 inWSW (240°)10.4 mph20.7 mph
5:00 PM26.1 °F21.2 °F82 %30.25 inWSW (250°)9.2 mph21.9 mph
6:00 PM26.2 °F21.6 °F82 %30.27 inWSW (240°)10.4 mph20.7 mph
7:00 PM26.4 °F20.5 °F78 %30.29 inWSW (250°)8.1 mph
8:00 PM26.4 °F19.8 °F76 %30.28 inWSW (250°)8.1 mph
9:00 PM26.1 °F19.4 °F76 %30.28 inWest (260°)5.8 mph
10:00 PM26.6 °F19.9 °F76 %30.27 inSW (230°)12.7 mph19.6 mph
11:00 PM26.2 °F20.1 °F78 %30.26 inWSW (240°)11.5 mph17.3 mph
Hourly data recorded from CWZG, located miles away from Banff, Alberta







STORIES FROM OUR PARTNERS